Time,TemperatureF,DewpointF,PressureIn,WindDirection,WindDirectionDegrees,WindSpeedMPH,WindSpeedGustMPH,Humidity,HourlyPrecipIn,Conditions,Clouds,dailyrainin,SoftwareType,DateUTC
2013-03-25 00:00:00,23.9,8.4,0.00,WNW,285,0.0,0.0,51,0.00,,---,0.00,VWS V14.01,2013-03-25 04:00:00,
2013-03-25 00:05:00,23.5,8.1,0.00,WNW,285,0.0,0.0,51,0.00,,---,0.00,VWS V14.01,2013-03-25 04:05:00,
2013-03-25 00:10:00,23.5,8.1,0.00,WNW,285,0.0,0.0,51,0.00,,---,0.00,VWS V14.01,2013-03-25 04:10:00,
2013-03-25 00:15:00,23.5,8.5,0.00,WNW,285,0.0,0.0,52,0.00,,---,0.00,VWS V14.01,2013-03-25 04:15:00,
2013-03-25 00:20:00,23.5,8.5,0.00,WNW,285,0.0,0.0,52,0.00,,---,0.00,VWS V14.01,2013-03-25 04:20:00,
2013-03-25 00:25:00,23.5,8.5,0.00,WNW,285,0.0,0.0,52,0.00,,---,0.00,VWS V14.01,2013-03-25 04:25:00,
2013-03-25 00:30:00,23.0,8.0,0.00,WNW,285,0.0,0.0,52,0.00,,---,0.00,VWS V14.01,2013-03-25 04:30:00,
2013-03-25 00:35:00,23.0,8.0,0.00,WNW,285,0.0,0.0,52,0.00,,---,0.00,VWS V14.01,2013-03-25 04:35:00,
2013-03-25 00:40:00,23.0,8.0,0.00,WNW,285,0.0,0.0,52,0.00,,---,0.00,VWS V14.01,2013-03-25 04:40:00,
2013-03-25 00:45:00,23.0,8.0,0.00,WNW,285,0.0,0.0,52,0.00,,---,0.00,VWS V14.01,2013-03-25 04:45:00,
2013-03-25 00:50:00,23.0,8.0,0.00,WNW,285,0.0,0.0,52,0.00,,---,0.00,VWS V14.01,2013-03-25 04:50:00,
2013-03-25 00:55:00,22.3,7.3,0.00,WNW,285,0.0,0.0,52,0.00,,---,0.00,VWS V14.01,2013-03-25 04:55:00,
2013-03-25 01:00:00,22.3,7.3,0.00,WNW,285,0.0,0.0,52,0.00,,---,0.00,VWS V14.01,2013-03-25 05:00:00,
2013-03-25 01:05:00,22.1,7.2,0.00,WNW,285,0.0,0.0,52,0.00,,---,0.00,VWS V14.01,2013-03-25 05:05:00,
2013-03-25 01:10:00,22.1,7.2,0.00,WNW,285,0.0,0.0,52,0.00,,---,0.00,VWS V14.01,2013-03-25 05:10:00,
2013-03-25 01:15:00,21.6,6.2,0.00,WNW,285,0.0,0.0,51,0.00,,---,0.00,VWS V14.01,2013-03-25 05:15:00,
2013-03-25 01:20:00,21.2,6.3,0.00,WNW,285,0.0,0.0,52,0.00,,---,0.00,VWS V14.01,2013-03-25 05:20:00,
2013-03-25 01:25:00,21.2,6.3,0.00,WNW,285,0.0,0.0,52,0.00,,---,0.00,VWS V14.01,2013-03-25 05:25:00,
2013-03-25 01:30:00,21.2,6.3,0.00,WNW,285,0.0,0.0,52,0.00,,---,0.00,VWS V14.01,2013-03-25 05:30:00,
2013-03-25 01:35:00,21.0,6.2,0.00,WNW,285,0.0,0.0,52,0.00,,---,0.00,VWS V14.01,2013-03-25 05:35:00,
2013-03-25 01:40:00,21.0,6.2,0.00,WNW,285,0.0,0.0,52,0.00,,---,0.00,VWS V14.01,2013-03-25 05:40:00,
2013-03-25 01:45:00,21.2,6.8,0.00,WNW,285,0.0,0.0,53,0.00,,---,0.00,VWS V14.01,2013-03-25 05:45:00,
2013-03-25 01:50:00,21.2,6.8,0.00,WNW,285,0.0,0.0,53,0.00,,---,0.00,VWS V14.01,2013-03-25 05:50:00,
2013-03-25 01:55:00,20.8,6.4,0.00,WNW,285,0.0,0.0,53,0.00,,---,0.00,VWS V14.01,2013-03-25 05:55:00,
2013-03-25 02:00:00,20.8,6.4,0.00,WNW,285,0.0,0.0,53,0.00,,---,0.00,VWS V14.01,2013-03-25 06:00:00,
2013-03-25 02:05:00,20.3,5.5,0.00,WNW,285,0.0,0.0,52,0.00,,---,0.00,VWS V14.01,2013-03-25 06:05:00,
2013-03-25 02:10:00,20.3,5.5,0.00,WNW,285,0.0,0.0,52,0.00,,---,0.00,VWS V14.01,2013-03-25 06:10:00,
2013-03-25 02:15:00,20.3,5.9,0.00,WNW,285,0.0,0.0,53,0.00,,---,0.00,VWS V14.01,2013-03-25 06:15:00,
2013-03-25 02:20:00,20.3,5.9,0.00,WNW,285,0.0,0.0,53,0.00,,---,0.00,VWS V14.01,2013-03-25 06:20:00,
2013-03-25 02:25:00,20.5,6.1,0.00,WNW,285,0.0,0.0,53,0.00,,---,0.00,VWS V14.01,2013-03-25 06:25:00,
2013-03-25 02:30:00,20.3,5.9,0.00,WNW,285,0.0,0.0,53,0.00,,---,0.00,VWS V14.01,2013-03-25 06:30:00,
2013-03-25 02:35:00,20.3,5.9,0.00,WNW,285,0.0,0.0,53,0.00,,---,0.00,VWS V14.01,2013-03-25 06:35:00,
2013-03-25 02:40:00,20.3,5.9,0.00,WNW,285,0.0,0.0,53,0.00,,---,0.00,VWS V14.01,2013-03-25 06:40:00,
2013-03-25 02:45:00,20.1,5.7,0.00,WNW,285,0.0,0.0,53,0.00,,---,0.00,VWS V14.01,2013-03-25 06:45:00,
2013-03-25 02:50:00,19.9,5.6,0.00,WNW,285,0.0,0.0,53,0.00,,---,0.00,VWS V14.01,2013-03-25 06:50:00,
2013-03-25 02:55:00,19.6,5.2,0.00,WNW,285,0.0,0.0,53,0.00,,---,0.00,VWS V14.01,2013-03-25 06:55:00,
2013-03-25 03:00:00,19.6,5.2,0.00,WNW,285,0.0,0.0,53,0.00,,---,0.00,VWS V14.01,2013-03-25 07:00:00,
2013-03-25 03:05:00,19.6,5.2,0.00,WNW,285,0.0,0.0,53,0.00,,---,0.00,VWS V14.01,2013-03-25 07:05:00,
2013-03-25 03:10:00,19.6,5.2,0.00,WNW,285,0.0,0.0,53,0.00,,---,0.00,VWS V14.01,2013-03-25 07:10:00,
2013-03-25 03:15:00,19.4,5.1,0.00,WNW,285,0.0,0.0,53,0.00,,---,0.00,VWS V14.01,2013-03-25 07:15:00,
2013-03-25 03:20:00,19.4,5.1,0.00,WNW,285,0.0,0.0,53,0.00,,---,0.00,VWS V14.01,2013-03-25 07:20:00,
2013-03-25 03:25:00,19.0,4.7,0.00,WNW,285,0.0,0.0,53,0.00,,---,0.00,VWS V14.01,2013-03-25 07:25:00,
2013-03-25 03:30:00,19.0,4.7,0.00,WNW,285,0.0,0.0,53,0.00,,---,0.00,VWS V14.01,2013-03-25 07:30:00,
2013-03-25 03:35:00,19.0,4.7,0.00,WNW,285,0.0,0.0,53,0.00,,---,0.00,VWS V14.01,2013-03-25 07:35:00,
2013-03-25 03:40:00,19.0,4.7,0.00,WNW,285,0.0,0.0,53,0.00,,---,0.00,VWS V14.01,2013-03-25 07:40:00,
2013-03-25 03:45:00,19.0,4.7,0.00,WNW,285,0.0,0.0,53,0.00,,---,0.00,VWS V14.01,2013-03-25 07:45:00,
2013-03-25 03:50:00,18.9,4.6,0.00,WNW,285,0.0,0.0,53,0.00,,---,0.00,VWS V14.01,2013-03-25 07:50:00,
2013-03-25 03:55:00,18.9,4.6,0.00,WNW,285,0.0,0.0,53,0.00,,---,0.00,VWS V14.01,2013-03-25 07:55:00,
2013-03-25 04:00:00,18.7,4.4,0.00,WNW,285,0.0,0.0,53,0.00,,---,0.00,VWS V14.01,2013-03-25 08:00:00,
2013-03-25 04:05:00,18.9,5.0,0.00,WNW,285,0.0,0.0,54,0.00,,---,0.00,VWS V14.01,2013-03-25 08:05:00,
2013-03-25 04:10:00,19.0,5.1,0.00,WNW,285,0.0,0.0,54,0.00,,---,0.00,VWS V14.01,2013-03-25 08:10:00,
2013-03-25 04:15:00,18.9,4.6,0.00,WNW,285,0.0,0.0,53,0.00,,---,0.00,VWS V14.01,2013-03-25 08:15:00,
2013-03-25 04:20:00,18.9,4.6,0.00,WNW,285,0.0,0.0,53,0.00,,---,0.00,VWS V14.01,2013-03-25 08:20:00,
2013-03-25 04:25:00,18.5,4.2,0.00,WNW,285,0.0,0.0,53,0.00,,---,0.00,VWS V14.01,2013-03-25 08:25:00,
2013-03-25 04:30:00,18.3,4.1,0.00,WNW,285,0.0,0.0,53,0.00,,---,0.00,VWS V14.01,2013-03-25 08:30:00,
2013-03-25 04:35:00,18.3,4.1,0.00,WNW,285,0.0,0.0,53,0.00,,---,0.00,VWS V14.01,2013-03-25 08:35:00,
2013-03-25 04:40:00,18.1,3.9,0.00,WNW,285,0.0,0.0,53,0.00,,---,0.00,VWS V14.01,2013-03-25 08:40:00,
2013-03-25 04:45:00,18.1,3.9,0.00,WNW,285,0.0,0.0,53,0.00,,---,0.00,VWS V14.01,2013-03-25 08:45:00,
2013-03-25 04:50:00,18.1,3.9,0.00,WNW,285,0.0,0.0,53,0.00,,---,0.00,VWS V14.01,2013-03-25 08:50:00,
2013-03-25 04:55:00,18.1,3.9,0.00,WNW,285,0.0,0.0,53,0.00,,---,0.00,VWS V14.01,2013-03-25 08:55:00,
2013-03-25 05:00:00,18.1,3.9,0.00,WNW,285,0.0,0.0,53,0.00,,---,0.00,VWS V14.01,2013-03-25 09:00:00,
2013-03-25 05:05:00,17.8,3.6,0.00,WNW,285,0.0,0.0,53,0.00,,---,0.00,VWS V14.01,2013-03-25 09:05:00,
2013-03-25 05:10:00,17.8,3.6,0.00,WNW,285,0.0,0.0,53,0.00,,---,0.00,VWS V14.01,2013-03-25 09:10:00,
2013-03-25 05:15:00,18.1,3.9,0.00,WNW,285,0.0,0.0,53,0.00,,---,0.00,VWS V14.01,2013-03-25 09:15:00,
2013-03-25 05:20:00,18.1,3.9,0.00,WNW,285,0.0,0.0,53,0.00,,---,0.00,VWS V14.01,2013-03-25 09:20:00,
2013-03-25 05:25:00,18.1,3.9,0.00,WNW,285,0.0,0.0,53,0.00,,---,0.00,VWS V14.01,2013-03-25 09:25:00,
2013-03-25 05:30:00,18.1,3.9,0.00,WNW,285,0.0,0.0,53,0.00,,---,0.00,VWS V14.01,2013-03-25 09:30:00,
2013-03-25 05:35:00,18.5,4.6,0.00,WNW,285,0.0,0.0,54,0.00,,---,0.00,VWS V14.01,2013-03-25 09:35:00,
2013-03-25 05:40:00,18.7,4.8,0.00,WNW,285,0.0,0.0,54,0.00,,---,0.00,VWS V14.01,2013-03-25 09:40:00,
2013-03-25 05:45:00,18.7,4.8,0.00,WNW,285,0.0,0.0,54,0.00,,---,0.00,VWS V14.01,2013-03-25 09:45:00,
2013-03-25 05:50:00,18.5,4.6,0.00,WNW,285,0.0,0.0,54,0.00,,---,0.00,VWS V14.01,2013-03-25 09:50:00,
2013-03-25 05:55:00,18.7,4.8,0.00,WNW,285,0.0,0.0,54,0.00,,---,0.00,VWS V14.01,2013-03-25 09:55:00,
2013-03-25 06:00:00,18.5,4.2,0.00,WNW,285,0.0,0.0,53,0.00,,---,0.00,VWS V14.01,2013-03-25 10:00:00,
2013-03-25 06:05:00,18.5,4.6,0.00,WNW,285,0.0,0.0,54,0.00,,---,0.00,VWS V14.01,2013-03-25 10:05:00,
2013-03-25 06:10:00,18.5,4.6,0.00,WNW,285,0.0,0.0,54,0.00,,---,0.00,VWS V14.01,2013-03-25 10:10:00,
2013-03-25 06:15:00,18.5,4.6,0.00,WNW,285,0.0,0.0,54,0.00,,---,0.00,VWS V14.01,2013-03-25 10:15:00,
2013-03-25 06:20:00,18.5,4.6,0.00,WNW,285,0.0,0.0,54,0.00,,---,0.00,VWS V14.01,2013-03-25 10:20:00,
2013-03-25 06:25:00,18.5,4.6,0.00,WNW,285,0.0,0.0,54,0.00,,---,0.00,VWS V14.01,2013-03-25 10:25:00,
2013-03-25 06:30:00,18.5,4.6,0.00,WNW,285,0.0,0.0,54,0.00,,---,0.00,VWS V14.01,2013-03-25 10:30:00,
2013-03-25 06:35:00,18.1,4.3,0.00,WNW,285,0.0,0.0,54,0.00,,---,0.00,VWS V14.01,2013-03-25 10:35:00,
2013-03-25 06:40:00,18.1,4.3,0.00,WNW,285,0.0,0.0,54,0.00,,---,0.00,VWS V14.01,2013-03-25 10:40:00,
2013-03-25 06:45:00,18.1,4.3,0.00,WNW,285,0.0,0.0,54,0.00,,---,0.00,VWS V14.01,2013-03-25 10:45:00,
2013-03-25 06:50:00,18.1,4.3,0.00,WNW,285,0.0,0.0,54,0.00,,---,0.00,VWS V14.01,2013-03-25 10:50:00,
2013-03-25 06:55:00,18.1,4.3,0.00,WNW,285,0.0,0.0,54,0.00,,---,0.00,VWS V14.01,2013-03-25 10:55:00,
2013-03-25 07:00:00,17.8,4.0,0.00,WNW,285,0.0,0.0,54,0.00,,---,0.00,VWS V14.01,2013-03-25 11:00:00,
2013-03-25 07:05:00,18.0,4.1,0.00,WNW,285,0.0,0.0,54,0.00,,---,0.00,VWS V14.01,2013-03-25 11:05:00,
2013-03-25 07:10:00,18.0,4.1,0.00,WNW,285,0.0,0.0,54,0.00,,---,0.00,VWS V14.01,2013-03-25 11:10:00,
2013-03-25 07:15:00,18.0,4.1,0.00,WNW,285,0.0,0.0,54,0.00,,---,0.00,VWS V14.01,2013-03-25 11:15:00,
2013-03-25 07:20:00,18.0,4.1,0.00,WNW,285,0.0,0.0,54,0.00,,---,0.00,VWS V14.01,2013-03-25 11:20:00,
2013-03-25 07:25:00,18.1,4.3,0.00,WNW,285,0.0,0.0,54,0.00,,---,0.00,VWS V14.01,2013-03-25 11:25:00,
2013-03-25 07:30:00,18.1,4.3,0.00,WNW,285,0.0,0.0,54,0.00,,---,0.00,VWS V14.01,2013-03-25 11:30:00,
2013-03-25 07:35:00,17.8,4.0,0.00,WNW,285,0.0,0.0,54,0.00,,---,0.00,VWS V14.01,2013-03-25 11:35:00,
2013-03-25 07:40:00,17.8,4.0,0.00,WNW,285,0.0,0.0,54,0.00,,---,0.00,VWS V14.01,2013-03-25 11:40:00,
2013-03-25 07:45:00,18.1,4.3,0.00,WNW,285,0.0,0.0,54,0.00,,---,0.00,VWS V14.01,2013-03-25 11:45:00,
2013-03-25 07:50:00,18.1,4.3,0.00,WNW,285,0.0,0.0,54,0.00,,---,0.00,VWS V14.01,2013-03-25 11:50:00,
2013-03-25 07:55:00,18.7,4.8,0.00,WNW,285,0.0,0.0,54,0.00,,---,0.00,VWS V14.01,2013-03-25 11:55:00,
2013-03-25 08:00:00,18.9,5.0,0.00,WNW,285,0.0,0.0,54,0.00,,---,0.00,VWS V14.01,2013-03-25 12:00:00,
2013-03-25 08:05:00,19.0,5.5,0.00,WNW,285,0.0,0.0,55,0.00,,---,0.00,VWS V14.01,2013-03-25 12:05:00,
2013-03-25 08:10:00,19.6,5.7,0.00,WNW,285,0.0,0.0,54,0.00,,---,0.00,VWS V14.01,2013-03-25 12:10:00,
2013-03-25 08:15:00,19.6,5.7,0.00,WNW,285,0.0,0.0,54,0.00,,---,0.00,VWS V14.01,2013-03-25 12:15:00,
2013-03-25 08:20:00,19.6,5.7,0.00,WNW,285,0.0,0.0,54,0.00,,---,0.00,VWS V14.01,2013-03-25 12:20:00,
2013-03-25 08:25:00,20.7,7.1,0.00,WNW,285,0.0,0.0,55,0.00,,---,0.00,VWS V14.01,2013-03-25 12:25:00,
2013-03-25 08:30:00,20.7,7.1,0.00,WNW,285,0.0,0.0,55,0.00,,---,0.00,VWS V14.01,2013-03-25 12:30:00,
2013-03-25 08:35:00,21.4,7.7,0.00,WNW,285,0.0,0.0,55,0.00,,---,0.00,VWS V14.01,2013-03-25 12:35:00,
2013-03-25 08:40:00,21.4,7.7,0.00,WNW,285,0.0,0.0,55,0.00,,---,0.00,VWS V14.01,2013-03-25 12:40:00,
2013-03-25 08:45:00,21.4,7.7,0.00,WNW,285,0.0,0.0,55,0.00,,---,0.00,VWS V14.01,2013-03-25 12:45:00,
2013-03-25 08:50:00,22.6,8.9,0.00,WNW,285,0.0,0.0,55,0.00,,---,0.00,VWS V14.01,2013-03-25 12:50:00,
2013-03-25 08:55:00,22.6,8.9,0.00,WNW,285,0.0,0.0,55,0.00,,---,0.00,VWS V14.01,2013-03-25 12:55:00,
2013-03-25 09:00:00,23.5,10.2,0.00,WNW,285,0.0,0.0,56,0.00,,---,0.00,VWS V14.01,2013-03-25 13:00:00,
2013-03-25 09:05:00,23.5,10.2,0.00,WNW,285,0.0,0.0,56,0.00,,---,0.00,VWS V14.01,2013-03-25 13:05:00,
2013-03-25 09:10:00,23.5,10.2,0.00,WNW,285,0.0,0.0,56,0.00,,---,0.00,VWS V14.01,2013-03-25 13:10:00,
2013-03-25 09:15:00,25.2,11.7,0.00,WNW,285,0.0,0.0,56,0.00,,---,0.00,VWS V14.01,2013-03-25 13:15:00,
2013-03-25 09:20:00,25.2,11.7,0.00,WNW,285,0.0,0.0,56,0.00,,---,0.00,VWS V14.01,2013-03-25 13:20:00,
2013-03-25 09:25:00,26.1,12.5,0.00,WNW,285,0.0,0.0,56,0.00,,---,0.00,VWS V14.01,2013-03-25 13:25:00,
2013-03-25 09:30:00,26.4,13.3,0.00,WNW,285,0.0,0.0,57,0.00,,---,0.00,VWS V14.01,2013-03-25 13:30:00,
2013-03-25 09:35:00,26.4,13.3,0.00,WNW,285,0.0,0.0,57,0.00,,---,0.00,VWS V14.01,2013-03-25 13:35:00,
2013-03-25 09:40:00,26.4,13.3,0.00,WNW,285,0.0,0.0,57,0.00,,---,0.00,VWS V14.01,2013-03-25 13:40:00,
2013-03-25 09:45:00,26.4,13.3,0.00,WNW,285,0.0,0.0,57,0.00,,---,0.00,VWS V14.01,2013-03-25 13:45:00,
2013-03-25 09:50:00,28.8,15.5,0.00,WNW,282,0.0,0.0,57,0.00,,---,0.00,VWS V14.01,2013-03-25 13:50:00,
2013-03-25 09:55:00,29.1,15.8,0.00,WNW,282,0.0,0.0,57,0.00,,---,0.00,VWS V14.01,2013-03-25 13:55:00,
2013-03-25 10:00:00,29.7,16.3,0.00,WNW,282,0.0,0.0,57,0.00,,---,0.00,VWS V14.01,2013-03-25 14:00:00,
2013-03-25 10:05:00,29.7,16.3,0.00,NNE,22,0.0,0.0,57,0.00,,---,0.00,VWS V14.01,2013-03-25 14:05:00,
2013-03-25 10:10:00,29.7,16.3,0.00,WNW,293,0.0,0.0,57,0.00,,---,0.00,VWS V14.01,2013-03-25 14:10:00,
2013-03-25 10:15:00,29.7,16.3,0.00,WNW,300,0.0,0.0,57,0.00,,---,0.00,VWS V14.01,2013-03-25 14:15:00,
2013-03-25 10:20:00,31.1,17.2,0.00,WNW,300,0.0,0.0,56,0.00,,---,0.00,VWS V14.01,2013-03-25 14:20:00,
2013-03-25 10:25:00,32.2,17.8,0.00,WNW,300,0.0,0.0,55,0.00,,---,0.00,VWS V14.01,2013-03-25 14:25:00,
2013-03-25 10:30:00,32.2,17.8,0.00,NW,307,2.7,2.7,55,0.00,,---,0.00,VWS V14.01,2013-03-25 14:30:00,
2013-03-25 10:35:00,32.2,17.8,0.00,NW,307,2.7,2.7,55,0.00,,---,0.00,VWS V14.01,2013-03-25 14:35:00,
2013-03-25 10:40:00,32.2,17.8,0.00,NW,311,0.0,3.1,55,0.00,,---,0.00,VWS V14.01,2013-03-25 14:40:00,
2013-03-25 10:45:00,34.0,18.7,0.00,NNE,26,0.0,0.0,53,0.00,,---,0.00,VWS V14.01,2013-03-25 14:45:00,
2013-03-25 10:50:00,34.9,19.1,0.00,NNE,26,0.0,0.0,52,0.00,,---,0.00,VWS V14.01,2013-03-25 14:50:00,
2013-03-25 10:55:00,35.2,19.4,0.00,North,357,0.0,0.0,52,0.00,,---,0.00,VWS V14.01,2013-03-25 14:55:00,
2013-03-25 11:00:00,35.2,19.4,0.00,North,357,0.0,0.0,52,0.00,,---,0.00,VWS V14.01,2013-03-25 15:00:00,
2013-03-25 11:05:00,35.6,18.8,0.00,NW,304,2.2,2.2,50,0.00,,---,0.00,VWS V14.01,2013-03-25 15:05:00,
2013-03-25 11:10:00,35.8,18.0,0.00,NW,304,2.2,2.2,48,0.00,,---,0.00,VWS V14.01,2013-03-25 15:10:00,
2013-03-25 11:15:00,35.8,18.0,0.00,NNW,327,2.2,2.2,48,0.00,,---,0.00,VWS V14.01,2013-03-25 15:15:00,
2013-03-25 11:20:00,36.1,17.4,0.00,WNW,302,0.0,0.0,46,0.00,,---,0.00,VWS V14.01,2013-03-25 15:20:00,
2013-03-25 11:25:00,36.3,17.0,0.00,WNW,284,2.2,2.2,45,0.00,,---,0.00,VWS V14.01,2013-03-25 15:25:00,
2013-03-25 11:30:00,36.3,17.0,0.00,WNW,301,0.0,2.2,45,0.00,,---,0.00,VWS V14.01,2013-03-25 15:30:00,
2013-03-25 11:35:00,36.9,17.5,0.00,NW,326,0.0,0.0,45,0.00,,---,0.00,VWS V14.01,2013-03-25 15:35:00,
2013-03-25 11:40:00,36.9,17.5,0.00,NW,326,0.0,0.0,45,0.00,,---,0.00,VWS V14.01,2013-03-25 15:40:00,
2013-03-25 11:45:00,36.5,16.7,0.00,NW,314,0.0,0.0,44,0.00,,---,0.00,VWS V14.01,2013-03-25 15:45:00,
2013-03-25 11:50:00,36.5,16.7,0.00,NW,314,0.0,0.0,44,0.00,,---,0.00,VWS V14.01,2013-03-25 15:50:00,
2013-03-25 11:55:00,36.5,16.7,0.00,NE,38,0.0,0.0,44,0.00,,---,0.00,VWS V14.01,2013-03-25 15:55:00,
2013-03-25 12:00:00,36.5,16.7,0.00,West,265,3.1,3.1,44,0.00,,---,0.00,VWS V14.01,2013-03-25 16:00:00,
2013-03-25 12:05:00,36.5,16.7,0.00,WNW,297,0.0,0.0,44,0.00,,---,0.00,VWS V14.01,2013-03-25 16:05:00,
2013-03-25 12:10:00,36.1,16.4,0.00,WNW,297,0.0,0.0,44,0.00,,---,0.00,VWS V14.01,2013-03-25 16:10:00,
2013-03-25 12:15:00,36.0,15.6,0.00,WNW,296,0.0,0.0,43,0.00,,---,0.00,VWS V14.01,2013-03-25 16:15:00,
2013-03-25 12:20:00,36.0,15.6,0.00,NW,304,3.1,3.1,43,0.00,,---,0.00,VWS V14.01,2013-03-25 16:20:00,
2013-03-25 12:25:00,36.1,15.8,0.00,NW,305,0.0,0.0,43,0.00,,---,0.00,VWS V14.01,2013-03-25 16:25:00,
2013-03-25 12:31:00,36.5,16.7,0.00,NW,305,0.0,0.0,44,0.00,,---,0.00,VWS V14.01,2013-03-25 16:31:00,
2013-03-25 12:36:00,36.7,16.3,0.00,NW,305,0.0,0.0,43,0.00,,---,0.00,VWS V14.01,2013-03-25 16:36:00,
2013-03-25 12:41:00,36.5,16.1,0.00,NW,317,0.0,0.0,43,0.00,,---,0.00,VWS V14.01,2013-03-25 16:41:00,
2013-03-25 12:46:00,36.5,16.1,0.00,WNW,298,3.1,3.1,43,0.00,,---,0.00,VWS V14.01,2013-03-25 16:46:00,
2013-03-25 12:51:00,36.5,16.1,0.00,WNW,298,0.0,0.0,43,0.00,,---,0.00,VWS V14.01,2013-03-25 16:51:00,
2013-03-25 12:56:00,36.5,16.1,0.00,WNW,294,0.0,0.0,43,0.00,,---,0.00,VWS V14.01,2013-03-25 16:56:00,
2013-03-25 13:01:00,36.5,16.1,0.00,WNW,294,0.0,0.0,43,0.00,,---,0.00,VWS V14.01,2013-03-25 17:01:00,
2013-03-25 13:06:00,36.5,16.1,0.00,West,271,0.0,0.0,43,0.00,,---,0.00,VWS V14.01,2013-03-25 17:06:00,
2013-03-25 13:11:00,36.3,16.0,0.00,West,271,0.0,0.0,43,0.00,,---,0.00,VWS V14.01,2013-03-25 17:11:00,
2013-03-25 13:16:00,36.3,16.0,0.00,NNW,329,0.0,0.0,43,0.00,,---,0.00,VWS V14.01,2013-03-25 17:16:00,
2013-03-25 13:21:00,36.3,16.0,0.00,NNW,329,0.0,0.0,43,0.00,,---,0.00,VWS V14.01,2013-03-25 17:21:00,
2013-03-25 13:27:00,36.3,16.0,0.00,NE,35,0.0,0.0,43,0.00,,---,0.00,VWS V14.01,2013-03-25 17:27:00,
2013-03-25 13:32:00,36.1,15.8,0.00,NE,35,0.0,0.0,43,0.00,,---,0.00,VWS V14.01,2013-03-25 17:32:00,
2013-03-25 13:37:00,36.3,15.4,0.00,NW,324,0.0,0.0,42,0.00,,---,0.00,VWS V14.01,2013-03-25 17:37:00,
2013-03-25 13:42:00,36.7,15.8,0.00,NW,324,0.0,0.0,42,0.00,,---,0.00,VWS V14.01,2013-03-25 17:42:00,
2013-03-25 13:47:00,36.9,15.9,0.00,NW,324,2.2,2.2,42,0.00,,---,0.00,VWS V14.01,2013-03-25 17:47:00,
2013-03-25 13:52:00,37.0,16.1,0.00,NW,324,0.0,0.0,42,0.00,,---,0.00,VWS V14.01,2013-03-25 17:52:00,
2013-03-25 13:57:00,37.4,16.4,0.00,NW,324,0.0,0.0,42,0.00,,---,0.00,VWS V14.01,2013-03-25 17:57:00,
2013-03-25 14:02:00,37.6,16.6,0.00,NW,324,0.0,0.0,42,0.00,,---,0.00,VWS V14.01,2013-03-25 18:02:00,
2013-03-25 14:07:00,37.6,16.0,0.00,North,11,0.0,0.0,41,0.00,,---,0.00,VWS V14.01,2013-03-25 18:07:00,
2013-03-25 14:12:00,37.6,16.0,0.00,WNW,285,0.0,0.0,41,0.00,,---,0.00,VWS V14.01,2013-03-25 18:12:00,
2013-03-25 14:17:00,37.4,15.9,0.00,West,274,2.7,2.7,41,0.00,,---,0.00,VWS V14.01,2013-03-25 18:17:00,
2013-03-25 14:22:00,37.4,15.9,0.00,NNW,329,4.0,4.0,41,0.00,,---,0.00,VWS V14.01,2013-03-25 18:22:00,
2013-03-25 14:27:00,37.4,15.9,0.00,NW,322,0.0,0.0,41,0.00,,---,0.00,VWS V14.01,2013-03-25 18:27:00,
2013-03-25 14:32:00,37.4,15.9,0.00,NW,324,0.0,0.0,41,0.00,,---,0.00,VWS V14.01,2013-03-25 18:32:00,
2013-03-25 14:37:00,37.6,16.0,0.00,NW,324,0.0,0.0,41,0.00,,---,0.00,VWS V14.01,2013-03-25 18:37:00,
2013-03-25 14:42:00,37.6,16.0,0.00,NW,309,0.0,0.0,41,0.00,,---,0.00,VWS V14.01,2013-03-25 18:42:00,
2013-03-25 14:47:00,37.6,16.0,0.00,NW,319,0.0,0.0,41,0.00,,---,0.00,VWS V14.01,2013-03-25 18:47:00,
2013-03-25 14:52:00,37.6,16.0,0.00,NW,320,0.0,0.0,41,0.00,,---,0.00,VWS V14.01,2013-03-25 18:52:00,
2013-03-25 14:57:00,37.6,16.0,0.00,NW,320,0.0,0.0,41,0.00,,---,0.00,VWS V14.01,2013-03-25 18:57:00,
2013-03-25 15:02:00,37.8,16.2,0.00,NW,320,0.0,0.0,41,0.00,,---,0.00,VWS V14.01,2013-03-25 19:02:00,
2013-03-25 15:07:00,37.9,16.4,0.00,WNW,301,0.0,0.0,41,0.00,,---,0.00,VWS V14.01,2013-03-25 19:07:00,
2013-03-25 15:12:00,37.8,16.2,0.00,WNW,301,0.0,0.0,41,0.00,,---,0.00,VWS V14.01,2013-03-25 19:12:00,
2013-03-25 15:17:00,37.8,15.6,0.00,NNW,338,0.0,0.0,40,0.00,,---,0.00,VWS V14.01,2013-03-25 19:17:00,
2013-03-25 15:22:00,37.6,15.5,0.00,NNW,338,0.0,0.0,40,0.00,,---,0.00,VWS V14.01,2013-03-25 19:22:00,
2013-03-25 15:27:00,37.4,15.3,0.00,NNW,338,0.0,0.0,40,0.00,,---,0.00,VWS V14.01,2013-03-25 19:27:00,
2013-03-25 15:33:00,37.2,15.7,0.00,NE,50,0.0,0.0,41,0.00,,---,0.00,VWS V14.01,2013-03-25 19:33:00,
2013-03-25 15:38:00,36.9,15.4,0.00,NW,314,0.0,0.0,41,0.00,,---,0.00,VWS V14.01,2013-03-25 19:38:00,
2013-03-25 15:43:00,36.9,15.4,0.00,WNW,302,4.0,4.0,41,0.00,,---,0.00,VWS V14.01,2013-03-25 19:43:00,
2013-03-25 15:48:00,36.7,15.2,0.00,NNW,330,0.0,4.0,41,0.00,,---,0.00,VWS V14.01,2013-03-25 19:48:00,
2013-03-25 15:53:00,36.7,15.2,0.00,NNW,333,0.0,0.0,41,0.00,,---,0.00,VWS V14.01,2013-03-25 19:53:00,
2013-03-25 15:58:00,36.7,15.2,0.00,NW,313,2.2,2.2,41,0.00,,---,0.00,VWS V14.01,2013-03-25 19:58:00,
2013-03-25 16:03:00,36.5,15.1,0.00,NE,53,3.1,3.1,41,0.00,,---,0.00,VWS V14.01,2013-03-25 20:03:00,
2013-03-25 16:08:00,36.5,15.1,0.00,WNW,300,0.0,0.0,41,0.00,,---,0.00,VWS V14.01,2013-03-25 20:08:00,
2013-03-25 16:13:00,36.3,14.9,0.00,NNW,335,0.0,0.0,41,0.00,,---,0.00,VWS V14.01,2013-03-25 20:13:00,
2013-03-25 16:18:00,36.3,14.9,0.00,NNW,335,0.0,0.0,41,0.00,,---,0.00,VWS V14.01,2013-03-25 20:18:00,
2013-03-25 16:23:00,36.3,14.9,0.00,WNW,302,0.0,0.0,41,0.00,,---,0.00,VWS V14.01,2013-03-25 20:23:00,
2013-03-25 16:28:00,36.3,14.9,0.00,NNE,28,2.7,2.7,41,0.00,,---,0.00,VWS V14.01,2013-03-25 20:28:00,
2013-03-25 16:33:00,36.3,14.9,0.00,NE,49,0.0,0.0,41,0.00,,---,0.00,VWS V14.01,2013-03-25 20:33:00,
2013-03-25 16:38:00,36.3,14.9,0.00,NE,49,0.0,0.0,41,0.00,,---,0.00,VWS V14.01,2013-03-25 20:38:00,
2013-03-25 16:43:00,36.3,14.9,0.00,NNW,329,0.0,0.0,41,0.00,,---,0.00,VWS V14.01,2013-03-25 20:43:00,
2013-03-25 16:48:00,36.3,14.9,0.00,NNW,329,0.0,0.0,41,0.00,,---,0.00,VWS V14.01,2013-03-25 20:48:00,
2013-03-25 16:53:00,36.3,14.9,0.00,NNW,329,0.0,0.0,41,0.00,,---,0.00,VWS V14.01,2013-03-25 20:53:00,
2013-03-25 16:58:00,36.3,14.9,0.00,NE,55,0.0,0.0,41,0.00,,---,0.00,VWS V14.01,2013-03-25 20:58:00,
2013-03-25 17:03:00,36.3,14.9,0.00,NE,55,0.0,0.0,41,0.00,,---,0.00,VWS V14.01,2013-03-25 21:03:00,
2013-03-25 17:08:00,36.3,15.4,0.00,NNE,18,0.0,0.0,42,0.00,,---,0.00,VWS V14.01,2013-03-25 21:08:00,
2013-03-25 17:13:00,36.3,15.4,0.00,NNE,18,0.0,0.0,42,0.00,,---,0.00,VWS V14.01,2013-03-25 21:13:00,
2013-03-25 17:18:00,36.3,15.4,0.00,NW,320,0.0,0.0,42,0.00,,---,0.00,VWS V14.01,2013-03-25 21:18:00,
2013-03-25 17:23:00,36.3,15.4,0.00,NW,319,0.0,0.0,42,0.00,,---,0.00,VWS V14.01,2013-03-25 21:23:00,
2013-03-25 17:28:00,36.5,15.6,0.00,NW,319,0.0,0.0,42,0.00,,---,0.00,VWS V14.01,2013-03-25 21:28:00,
2013-03-25 17:33:00,36.5,15.6,0.00,South,182,4.0,4.0,42,0.00,,---,0.00,VWS V14.01,2013-03-25 21:33:00,
2013-03-25 17:38:00,36.5,15.6,0.00,West,271,0.0,0.0,42,0.00,,---,0.00,VWS V14.01,2013-03-25 21:38:00,
2013-03-25 17:43:00,36.5,15.6,0.00,West,271,0.0,0.0,42,0.00,,---,0.00,VWS V14.01,2013-03-25 21:43:00,
2013-03-25 17:48:00,36.3,15.4,0.00,NNW,340,0.0,0.0,42,0.00,,---,0.00,VWS V14.01,2013-03-25 21:48:00,
2013-03-25 17:53:00,36.3,15.4,0.00,NNW,341,0.0,0.0,42,0.00,,---,0.00,VWS V14.01,2013-03-25 21:53:00,
2013-03-25 17:58:00,36.3,15.4,0.00,NNW,341,0.0,0.0,42,0.00,,---,0.00,VWS V14.01,2013-03-25 21:58:00,
2013-03-25 18:03:00,36.3,15.4,0.00,West,273,0.0,0.0,42,0.00,,---,0.00,VWS V14.01,2013-03-25 22:03:00,
2013-03-25 18:08:00,36.3,15.4,0.00,NW,319,0.0,0.0,42,0.00,,---,0.00,VWS V14.01,2013-03-25 22:08:00,
2013-03-25 18:13:00,36.1,15.3,0.00,West,268,0.0,0.0,42,0.00,,---,0.00,VWS V14.01,2013-03-25 22:13:00,
2013-03-25 18:18:00,36.1,15.3,0.00,WNW,295,0.0,0.0,42,0.00,,---,0.00,VWS V14.01,2013-03-25 22:18:00,
2013-03-25 18:23:00,36.1,15.3,0.00,NW,321,0.0,0.0,42,0.00,,---,0.00,VWS V14.01,2013-03-25 22:23:00,
2013-03-25 18:28:00,36.0,15.1,0.00,NW,321,0.0,0.0,42,0.00,,---,0.00,VWS V14.01,2013-03-25 22:28:00,
2013-03-25 18:33:00,36.0,15.1,0.00,NW,321,0.0,0.0,42,0.00,,---,0.00,VWS V14.01,2013-03-25 22:33:00,
2013-03-25 18:38:00,36.0,15.1,0.00,NW,321,0.0,0.0,42,0.00,,---,0.00,VWS V14.01,2013-03-25 22:38:00,
2013-03-25 18:43:00,35.8,14.9,0.00,WNW,298,0.0,0.0,42,0.00,,---,0.00,VWS V14.01,2013-03-25 22:43:00,
2013-03-25 18:48:00,35.8,14.9,0.00,WNW,298,0.0,0.0,42,0.00,,---,0.00,VWS V14.01,2013-03-25 22:48:00,
2013-03-25 18:53:00,35.8,14.9,0.00,WNW,298,0.0,0.0,42,0.00,,---,0.00,VWS V14.01,2013-03-25 22:53:00,
2013-03-25 18:58:00,35.6,14.8,0.00,WNW,298,0.0,0.0,42,0.00,,---,0.00,VWS V14.01,2013-03-25 22:58:00,
2013-03-25 19:03:00,35.6,14.8,0.00,WNW,298,0.0,0.0,42,0.00,,---,0.00,VWS V14.01,2013-03-25 23:03:00,
2013-03-25 19:08:00,35.6,14.8,0.00,WNW,298,0.0,0.0,42,0.00,,---,0.00,VWS V14.01,2013-03-25 23:08:00,
2013-03-25 19:13:00,35.4,15.2,0.00,WNW,298,0.0,0.0,43,0.00,,---,0.00,VWS V14.01,2013-03-25 23:13:00,
2013-03-25 19:18:00,35.4,15.2,0.00,WNW,298,0.0,0.0,43,0.00,,---,0.00,VWS V14.01,2013-03-25 23:18:00,
2013-03-25 19:23:00,35.4,15.2,0.00,WNW,298,0.0,0.0,43,0.00,,---,0.00,VWS V14.01,2013-03-25 23:23:00,
2013-03-25 19:28:00,35.2,15.5,0.00,WNW,298,0.0,0.0,44,0.00,,---,0.00,VWS V14.01,2013-03-25 23:28:00,
2013-03-25 19:33:00,35.2,15.5,0.00,WNW,298,0.0,0.0,44,0.00,,---,0.00,VWS V14.01,2013-03-25 23:33:00,
2013-03-25 19:38:00,35.1,15.4,0.00,WNW,298,0.0,0.0,44,0.00,,---,0.00,VWS V14.01,2013-03-25 23:38:00,
2013-03-25 19:43:00,35.1,15.4,0.00,WNW,298,0.0,0.0,44,0.00,,---,0.00,VWS V14.01,2013-03-25 23:43:00,
2013-03-25 19:48:00,35.1,15.4,0.00,WNW,298,0.0,0.0,44,0.00,,---,0.00,VWS V14.01,2013-03-25 23:48:00,
2013-03-25 19:53:00,35.1,15.4,0.00,WNW,298,0.0,0.0,44,0.00,,---,0.00,VWS V14.01,2013-03-25 23:53:00,
2013-03-25 19:58:00,34.9,15.7,0.00,West,266,0.0,0.0,45,0.00,,---,0.00,VWS V14.01,2013-03-25 23:58:00,
2013-03-25 20:03:00,34.9,15.7,0.00,West,266,0.0,0.0,45,0.00,,---,0.00,VWS V14.01,2013-03-26 00:03:00,
2013-03-25 20:08:00,34.9,15.7,0.00,West,267,0.0,0.0,45,0.00,,---,0.00,VWS V14.01,2013-03-26 00:08:00,
2013-03-25 20:13:00,34.9,16.2,0.00,West,280,0.0,0.0,46,0.00,,---,0.00,VWS V14.01,2013-03-26 00:13:00,
2013-03-25 20:18:00,34.7,16.0,0.00,SW,236,0.0,0.0,46,0.00,,---,0.00,VWS V14.01,2013-03-26 00:18:00,
2013-03-25 20:23:00,34.7,16.0,0.00,SW,236,0.0,0.0,46,0.00,,---,0.00,VWS V14.01,2013-03-26 00:23:00,
2013-03-25 20:28:00,34.7,16.5,0.00,West,261,0.0,0.0,47,0.00,,---,0.00,VWS V14.01,2013-03-26 00:28:00,
2013-03-25 20:33:00,34.7,16.5,0.00,West,261,0.0,0.0,47,0.00,,---,0.00,VWS V14.01,2013-03-26 00:33:00,
2013-03-25 20:38:00,34.5,16.4,0.00,West,261,0.0,0.0,47,0.00,,---,0.00,VWS V14.01,2013-03-26 00:38:00,
2013-03-25 20:43:00,34.5,16.9,0.00,West,261,0.0,0.0,48,0.00,,---,0.00,VWS V14.01,2013-03-26 00:43:00,
2013-03-25 20:48:00,34.5,16.9,0.00,West,261,0.0,0.0,48,0.00,,---,0.00,VWS V14.01,2013-03-26 00:48:00,
2013-03-25 20:53:00,34.5,16.9,0.00,West,261,0.0,0.0,48,0.00,,---,0.00,VWS V14.01,2013-03-26 00:53:00,
2013-03-25 20:58:00,34.5,16.9,0.00,West,261,0.0,0.0,48,0.00,,---,0.00,VWS V14.01,2013-03-26 00:58:00,
2013-03-25 21:03:00,34.3,17.2,0.00,West,261,0.0,0.0,49,0.00,,---,0.00,VWS V14.01,2013-03-26 01:03:00,
2013-03-25 21:08:00,34.3,17.2,0.00,West,261,0.0,0.0,49,0.00,,---,0.00,VWS V14.01,2013-03-26 01:08:00,
2013-03-25 21:13:00,34.3,17.2,0.00,West,261,0.0,0.0,49,0.00,,---,0.00,VWS V14.01,2013-03-26 01:13:00,
2013-03-25 21:18:00,34.3,17.2,0.00,West,261,0.0,0.0,49,0.00,,---,0.00,VWS V14.01,2013-03-26 01:18:00,
2013-03-25 21:23:00,34.3,17.6,0.00,West,261,0.0,0.0,50,0.00,,---,0.00,VWS V14.01,2013-03-26 01:23:00,
2013-03-25 21:28:00,34.3,17.6,0.00,West,261,0.0,0.0,50,0.00,,---,0.00,VWS V14.01,2013-03-26 01:28:00,
2013-03-25 21:33:00,34.3,17.6,0.00,West,261,0.0,0.0,50,0.00,,---,0.00,VWS V14.01,2013-03-26 01:33:00,
2013-03-25 21:38:00,34.2,17.5,0.00,West,261,0.0,0.0,50,0.00,,---,0.00,VWS V14.01,2013-03-26 01:38:00,
2013-03-25 21:43:00,34.2,17.5,0.00,West,261,0.0,0.0,50,0.00,,---,0.00,VWS V14.01,2013-03-26 01:43:00,
2013-03-25 21:48:00,34.0,17.3,0.00,West,261,0.0,0.0,50,0.00,,---,0.00,VWS V14.01,2013-03-26 01:48:00,
2013-03-25 21:53:00,34.0,17.3,0.00,West,261,0.0,0.0,50,0.00,,---,0.00,VWS V14.01,2013-03-26 01:53:00,
2013-03-25 21:58:00,34.0,17.3,0.00,West,261,0.0,0.0,50,0.00,,---,0.00,VWS V14.01,2013-03-26 01:58:00,
2013-03-25 22:03:00,33.8,17.1,0.00,West,261,0.0,0.0,50,0.00,,---,0.00,VWS V14.01,2013-03-26 02:03:00,
2013-03-25 22:08:00,33.8,17.1,0.00,West,261,0.0,0.0,50,0.00,,---,0.00,VWS V14.01,2013-03-26 02:08:00,
2013-03-25 22:13:00,33.8,17.6,0.00,West,261,0.0,0.0,51,0.00,,---,0.00,VWS V14.01,2013-03-26 02:13:00,
2013-03-25 22:18:00,33.6,17.4,0.00,West,261,0.0,0.0,51,0.00,,---,0.00,VWS V14.01,2013-03-26 02:18:00,
2013-03-25 22:23:00,33.6,17.4,0.00,West,261,0.0,0.0,51,0.00,,---,0.00,VWS V14.01,2013-03-26 02:23:00,
2013-03-25 22:28:00,33.8,17.6,0.00,West,261,0.0,0.0,51,0.00,,---,0.00,VWS V14.01,2013-03-26 02:28:00,
2013-03-25 22:33:00,33.8,17.6,0.00,West,261,0.0,0.0,51,0.00,,---,0.00,VWS V14.01,2013-03-26 02:33:00,
2013-03-25 22:38:00,33.8,17.6,0.00,West,261,0.0,0.0,51,0.00,,---,0.00,VWS V14.01,2013-03-26 02:38:00,
2013-03-25 22:43:00,33.8,17.6,0.00,West,261,0.0,0.0,51,0.00,,---,0.00,VWS V14.01,2013-03-26 02:43:00,
2013-03-25 22:48:00,33.8,17.6,0.00,SSE,165,0.0,0.0,51,0.00,,---,0.00,VWS V14.01,2013-03-26 02:48:00,
2013-03-25 22:53:00,33.8,17.6,0.00,SSE,164,0.0,0.0,51,0.00,,---,0.00,VWS V14.01,2013-03-26 02:53:00,
2013-03-25 22:58:00,33.8,17.6,0.00,SSE,165,0.0,0.0,51,0.00,,---,0.00,VWS V14.01,2013-03-26 02:58:00,
2013-03-25 23:03:00,33.8,17.6,0.00,SSE,165,0.0,0.0,51,0.00,,---,0.00,VWS V14.01,2013-03-26 03:03:00,
2013-03-25 23:08:00,33.8,17.6,0.00,SSE,164,0.0,0.0,51,0.00,,---,0.00,VWS V14.01,2013-03-26 03:08:00,
2013-03-25 23:14:00,33.8,17.6,0.00,SSE,165,0.0,0.0,51,0.00,,---,0.00,VWS V14.01,2013-03-26 03:14:00,
2013-03-25 23:19:00,33.8,17.6,0.00,WNW,283,0.0,0.0,51,0.00,,---,0.00,VWS V14.01,2013-03-26 03:19:00,
2013-03-25 23:24:00,33.8,17.6,0.00,WNW,283,0.0,0.0,51,0.00,,---,0.00,VWS V14.01,2013-03-26 03:24:00,
2013-03-25 23:29:00,33.8,17.1,0.00,WNW,283,0.0,0.0,50,0.00,,---,0.00,VWS V14.01,2013-03-26 03:29:00,
2013-03-25 23:34:00,33.8,17.1,0.00,WNW,283,0.0,0.0,50,0.00,,---,0.00,VWS V14.01,2013-03-26 03:34:00,
2013-03-25 23:39:00,33.8,17.1,0.00,WNW,282,0.0,0.0,50,0.00,,---,0.00,VWS V14.01,2013-03-26 03:39:00,
2013-03-25 23:44:00,33.8,17.1,0.00,WNW,282,0.0,0.0,50,0.00,,---,0.00,VWS V14.01,2013-03-26 03:44:00,
2013-03-25 23:49:00,33.8,17.1,0.00,WNW,282,0.0,0.0,50,0.00,,---,0.00,VWS V14.01,2013-03-26 03:49:00,
2013-03-25 23:54:00,33.8,17.1,0.00,WNW,282,0.0,0.0,50,0.00,,---,0.00,VWS V14.01,2013-03-26 03:54:00,
2013-03-25 23:59:00,33.8,17.1,0.00,WNW,282,0.0,0.0,50,0.00,,---,0.00,VWS V14.01,2013-03-26 03:59:00,